Flag for Botswana Weather past 2 weeks in Molepolole, Botswana

Now
81 °F

Sunny.


Feels Like: 78 °F
Forecast: 50 / 79 °F
Wind: 12 mph from West

Location: Seretse Khama International Airport

Current Time: Sep 30, 2014 at 12:09:23 PM

Latest Report: Sep 30, 2014 at 11:00 AM


Visibility: 10 mi

Pressure: 30.07 "Hg

Humidity: 6%

Dew point: 7 °F

Location of MolepololeLocation

Historic Weather in Molepolole — Graph

°F

Molepolole temperature yesterday

Maximum temperature yesterday: 90 °F (at 5:00 PM)
Minimum temperature yesterday: 68 °F (at 5:00 AM)
Average temperature yesterday: 78 °F

Past Weeks' High & Low Weather Summary

 TemperatureHumidityPressure
High97 °F (Sep 27, 3:00 PM)82% (Sep 22, 4:00 AM)30.36 "Hg (Sep 22, 4:00 AM)
Low48 °F (Sep 20, 5:00 AM)6% (Sep 30, 11:00 AM)29.86 "Hg (Sep 18, 2:00 PM)
Average75 °F27%30.10 "Hg
* Reported Sep 15 11:00 AM — Sep 30 11:00 AM, Molepolole, Weather by CustomWeather, © 2014

Note: Actual official high and low records may vary slightly from our data, if they occured in-between our weather recording intervals... More about our weather records

Advertising

Molepolole weather history for previous 24 hours

 ConditionsComfort  
Time TempWeatherWind HumidityBarometerVisibility
11:00 AM
Sep 30
81 °FSunny.12 mph6%30.07 "Hg10 mi
10:00 AM75 °FPassing clouds.7 mph8%30.07 "HgN/A
9:00 AM72 °FPassing clouds.9 mph9%30.07 "HgN/A
8:00 AM66 °FPassing clouds.3 mph12%30.07 "HgN/A
7:00 AM57 °FSunny.1 mph17%30.04 "Hg10 mi
6:00 AM52 °FSunny.5 mph19%30.04 "Hg10 mi
5:00 AM59 °FSunny.1 mph13%30.01 "Hg10 mi
4:00 AM63 °FClear.7 mph13%30.01 "Hg10 mi
3:00 AM64 °FClear.8 mph12%30.01 "Hg10 mi
2:00 AM68 °FClear.13 mph11%30.01 "Hg10 mi
1:00 AM72 °FClear.13 mph11%30.01 "Hg10 mi
12:00 AM75 °FClear.12 mph11%30.01 "Hg10 mi
11:00 PM
Sep 29
79 °FClear.14 mph10%30.01 "Hg10 mi
10:00 PM79 °FClear.8 mph13%29.98 "Hg10 mi
9:00 PM82 °FPassing clouds.5 mph23%29.98 "HgN/A
8:00 PM84 °FPassing clouds.5 mph31%29.95 "HgN/A
7:00 PM82 °FClear.6 mph32%29.89 "Hg10 mi
6:00 PM86 °FPassing clouds.5 mph31%29.89 "HgN/A
5:00 PM90 °FScattered clouds.2 mph26%29.86 "HgN/A
4:00 PM88 °FScattered clouds.3 mph29%29.86 "HgN/A
3:00 PM88 °FPassing clouds.8 mph29%29.89 "HgN/A
2:00 PM86 °FPassing clouds.5 mph33%29.92 "HgN/A
12:00 PM77 °FScattered clouds.8 mph51%30.01 "HgN/A
Weather by CustomWeather, © 2014

See weather overviewHow to use our weather pages